• MPC Preparation (Info)

  • MPEC 2016-J130: 2016 JG29

    The following Minor Planet Electronic Circular may be linked-to from your own Web pages, but must not otherwise be redistributed electronically.

    A form allowing access to any MPEC is at the bottom of this page.


    Read MPEC 2016-J129 Read MPEC 2016-J131


    M.P.E.C. 2016-J130                               Issued 2016 May 14, 20:18 UT
    
         The Minor Planet Electronic Circulars contain information on unusual
             minor planets and routine data on comets.  They are published
        on behalf of Division F of the International Astronomical Union by the
              Minor Planet Center, Smithsonian Astrophysical Observatory,
                              Cambridge, MA 02138, U.S.A.
    
                 Prepared using the Tamkin Foundation Computer Network
    
                                  MPC@CFA.HARVARD.EDU
                URL https://www.minorplanetcenter.net/    ISSN 1523-6714
    
                                       2016 JG29
    
    Observations:
         K16J29G* C2016 05 12.28853 15 07 48.57 +05 44 10.5          18.5 VqEJ130703
         K16J29G  C2016 05 12.29458 15 07 55.37 +05 42 35.2          18.6 VqEJ130703
         K16J29G  C2016 05 12.30060 15 08 02.04 +05 41 01.1          18.6 VqEJ130703
         K16J29G  C2016 05 12.30665 15 08 08.81 +05 39 27.9          18.7 VqEJ130703
         K16J29G  C2016 05 12.32696 15 08 31.38 +05 34 13.6          18.8 VqEJ130703
         K16J29G  C2016 05 12.32746 15 08 31.85 +05 34 06.9          18.8 VqEJ130703
         K16J29G  C2016 05 12.32796 15 08 32.44 +05 33 58.1          18.9 VqEJ130703
         K16J29G  C2016 05 12.32846 15 08 32.98 +05 33 50.7          18.9 VqEJ130703
         K16J29G  C2016 05 12.34700015 08 52.49 +05 28 59.2          18.8 VtEJ130H01
         K16J29G  C2016 05 12.35099 15 08 57.73 +05 28 05.6          18.5 VqEJ130I52
         K16J29G  C2016 05 12.35129 15 08 58.09 +05 28 01.1          18.5 VqEJ130I52
         K16J29G  C2016 05 12.35159 15 08 58.39 +05 27 56.4          18.5 VqEJ130I52
         K16J29G  C2016 05 12.35189 15 08 58.74 +05 27 52.2          18.4 VqEJ130I52
         K16J29G  C2016 05 12.35413215 09 00.31 +05 27 10.6          19.1 VtEJ130H01
         K16J29G  C2016 05 12.36272015 09 09.72 +05 25 00.3          19.1 VtEJ130H01
         K16J29G  C2016 05 12.36853315 09 16.07 +05 23 32.3          19.0 VtEJ130H01
         K16J29G  C2016 05 12.59049 15 13 33.77 +04 30 41.8          19.2 RoEJ130300
         K16J29G  C2016 05 12.59244 15 13 35.64 +04 30 16.1          19.4 RoEJ130300
         K16J29G  C2016 05 12.59441 15 13 37.57 +04 29 49.5          19.6 RoEJ130300
         K16J29G  C2016 05 12.59638 15 13 39.42 +04 29 22.7          19.0 RoEJ130300
         K16J29G  C2016 05 12.59834 15 13 41.29 +04 28 55.9          19.1 RoEJ130300
         K16J29G  C2016 05 12.63942 15 14 19.56 +04 19 45.5          19.3 VqEJ130900
         K16J29G  C2016 05 12.65201 15 14 31.36 +04 16 59.2          19.3 VqEJ130900
         K16J29G  C2016 05 12.65831 15 14 37.24 +04 15 36.2          19.3 VqEJ130900
         K16J29G KC2016 05 13.18543 15 22 42.98 +02 32 44.8          19.1 RqEJ130H36
         K16J29G KC2016 05 13.19285 15 22 48.47 +02 31 27.5          19.2 RqEJ130H36
         K16J29G KC2016 05 13.19654 15 22 51.14 +02 30 50.4          19.4 RqEJ130H36
         K16J29G KC2016 05 13.19931 15 22 53.18 +02 30 22.6          19.2 RqEJ130H36
         K16J29G KC2016 05 13.25226915 23 29.25 +02 21 19.7          19.9 VuEJ130H21
         K16J29G KC2016 05 13.25449315 23 30.82 +02 20 57.2          19.6 VuEJ130H21
         K16J29G KC2016 05 13.25663315 23 32.34 +02 20 35.6          19.2 VuEJ130H21
         K16J29G KC2016 05 13.26004915 23 34.74 +02 20 00.8          19.6 VuEJ130H21
         K16J29G  C2016 05 13.30775 15 24 12.55 +02 12 28.5          19.5 VqEJ130G96
         K16J29G  C2016 05 13.31655 15 24 18.53 +02 11 01.7          19.4 VqEJ130G96
         K16J29G  C2016 05 13.32273 15 24 22.71 +02 10 00.8          19.3 VqEJ130G96
         K16J29G  C2016 05 13.32891 15 24 26.91 +02 08 59.7          19.2 VqEJ130G96
         K16J29G  C2016 05 13.37285 15 24 56.28 +02 01 56.4          19.0 RoEJ130926
         K16J29G  C2016 05 13.37487 15 24 57.66 +02 01 36.9          19.4 RoEJ130926
         K16J29G  C2016 05 13.37690 15 24 59.00 +02 01 17.2          19.4 RoEJ130926
         K16J29G HC2016 05 13.47135 15 26 02.10 +01 46 23.6                oEJ130691
         K16J29G HC2016 05 13.47488 15 26 04.52 +01 45 50.1                oEJ130691
         K16J29G HC2016 05 14.29850 15 34 35.93 -00 02 55.5                oEJ130691
         K16J29G  C2016 05 14.29947 15 34 36.13 -00 03 02.1          19.6 VqEJ130G96
         K16J29G  C2016 05 14.30542 15 34 38.82 -00 03 42.4          19.8 VqEJ130G96
         K16J29G  C2016 05 14.31138 15 34 41.50 -00 04 22.9          19.9 VqEJ130G96
         K16J29G HC2016 05 14.31258 15 34 42.24 -00 04 31.0                oEJ130691
         K16J29G  C2016 05 14.31733 15 34 44.16 -00 05 03.3          19.6 VqEJ130G96
         K16J29G HC2016 05 14.32671 15 34 48.55 -00 06 05.2                oEJ130691
    
    Observer details:
    300 Bisei Spaceguard Center--BATTeRS.  Observers K. Nishiyama, A. Asami.
        1.0-m f/3.0 reflector + CCD.
    691 Steward Observatory, Kitt Peak.  Observers T. H. Bressi, M. T. Read.
        0.9-m f/3 reflector + CCD.
    703 Catalina Sky Survey.  Observer J. A. Johnson.  Measurers E. J. Christensen,
        D. C. Fuls, A. R. Gibbs, A. D. Grauer, J. A. Johnson, R. A. Kowalski,
        S. M. Larson, G. J. Leonard, R. G. Matheny, R. L. Seaman, F. C. Shelly.
        0.68-m Schmidt + CCD.
    900 Moriyama.  Observer Y. Ikari.  0.26-m f/7.0 reflector + CCD.
    926 Tenagra II Observatory.  Observers M. Schwartz, P. R. Holvorcem.  Measurer
        M. Schwartz.  0.81-m f/7 Ritchey-Chretien + CCD.
    G96 Mt. Lemmon Survey.  Observer D. C. Fuls.  Measurers E. J. Christensen,
        D. C. Fuls, A. R. Gibbs, A. D. Grauer, J. A. Johnson, R. A. Kowalski,
        S. M. Larson, G. J. Leonard, R. G. Matheny, R. L. Seaman, F. C. Shelly.
        1.5-m reflector + CCD.
    H01 Magdalena Ridge Observatory, Socorro.  Observers W. H. Ryan, E. V. Ryan.
        Measurer W. H. Ryan.  2.4-m f/8.9 reflector + CCD.
    H21 Astronomical Research Observatory, Westfield.  Observer R. Holmes.
        Measurers S. Foglia, L. Buzzi, T. Linder, R. Holmes.  0.61-m f/4.5
        astrograph + CCD.
    H36 Sandlot Observatory, Scranton.  Observer G. Hug.  0.56-m reflector + CCD.
    I52 Steward Observatory, Mt. Lemmon Station.  Observers E. J. Christensen,
        G. J. Leonard.  Measurers E. J. Christensen, D. C. Fuls, A. R. Gibbs,
        A. D. Grauer, J. A. Johnson, R. A. Kowalski, S. M. Larson, G. J. Leonard,
        R. G. Matheny, R. L. Seaman, F. C. Shelly.  1.0-m reflector + CCD.
    
    Orbital elements:
    2016 JG29                                                Earth MOID = 0.0057 AU
    Epoch 2016 July 31.0 TT = JDT 2457600.5                 MPC
    M  38.38246              (2000.0)            P               Q
    n   0.31014178     Peri.  304.98060     -0.97859447     -0.19794999
    a   2.1615363      Node   223.67928     +0.20516267     -0.91689197
    e   0.6197696      Incl.    4.67522     +0.01615960     -0.34659042
    P   3.18           H   25.4           G   0.15           U   7
    Residuals in seconds of arc
    160512 703  0.3+  0.2+    160512 300  0.1+  0.0     160513 G96  0.2-  0.2+
    160512 703  0.4+  0.6-    160512 300  0.1+  0.6+    160513 G96  0.0   0.2+
    160512 703  0.5-  0.8-    160512 300  0.7+  0.6+    160513 G96  0.0   0.1+
    160512 703  0.2-  0.1+    160512 300  0.1+  0.4+    160513 G96  0.5+  0.4-
    160512 703  0.7+  0.2-    160512 300  0.0   0.0     160513 926  0.1-  0.0
    160512 703  0.5-  0.8+    160512 900  0.0   0.1-    160513 926  0.4+  0.1-
    160512 703  0.1+  0.3-    160512 900  0.2+  0.1-    160513 926  0.3+  0.2-
    160512 703  0.1-  0.0     160512 900  0.2+  0.2-    160513 691  0.4-  0.1+
    160512 H01  0.3-  0.1-    160513 H36  0.9-  0.5-    160513 691  0.4+  0.7-
    160512 I52  0.1-  0.1-    160513 H36  0.1+  1.0-    160514 691  0.7+  0.7-
    160512 I52  0.3+  0.0     160513 H36  0.1-  0.0     160514 G96  0.6-  0.6+
    160512 I52  0.1-  0.2-    160513 H36  0.4+  0.8+    160514 G96  0.4-  0.7+
    160512 I52  0.3+  0.2+    160513 H21  0.4-  0.5+    160514 G96  0.5-  0.6+
    160512 H01  0.4-  0.0     160513 H21  0.4-  0.5+    160514 691  0.3+  0.8-
    160512 H01  0.3-  0.1+    160513 H21  0.1-  0.5+    160514 G96  0.6-  0.4+
    160512 H01  0.4-  0.1+    160513 H21  0.1-  0.1+    160514 691  0.1+  0.4+
    
    Ephemeris:
    2016 JG29                a,e,i = 2.16, 0.62, 5                   q = 0.8219
    Date    TT    R. A. (2000) Decl.     Delta      r     Elong.  Phase     V
    2016 04 14    04 22 09.6 +12 24 47   0.2187  0.8542    42.4   127.7    27.2
    ...
    2016 04 29    04 47 54.6 +15 25 24   0.08609 0.9372    34.3   142.8    27.2
    ...
    2016 05 07    06 30 21.5 +30 53 32   0.02131 0.9957    50.3   128.7    22.6
    ...
    2016 05 13    15 20 01.8 +03 08 43   0.03580 1.0439   158.5    20.8    19.3
    2016 05 14    15 31 51.0 +00 34 35   0.04386 1.0522   160.7    18.5    19.7
    2016 05 15    15 39 58.0 -01 12 10   0.05207 1.0606   162.1    17.0    20.0
    ...
    2016 05 21    16 00 49.3 -05 54 50   0.1030  1.1122   165.6    13.1    21.5
    ...
    2016 05 29    16 09 06.2 -08 06 34   0.1744  1.1835   166.0    11.9    22.7
    ...
    2016 06 13    16 15 36.1 -10 15 40   0.3223  1.3212   158.8    16.2    24.4
    
    A. U. Tomatic                (C) Copyright 2016 MPC           M.P.E.C. 2016-J130
    

    Read MPEC 2016-J129 Read MPEC 2016-J131


    MPEC number:

    Enter an MPEC number in one of the following forms:

    • 1997-B01 (the full form)
    • J97B01 (the packed version of the full form)
    • B01 (the abbreviated form)